| time (UTC) | temp F | wind direction | speed knots | gust knots | rain 1hr in | rain 24hr in | rain mn in | humidity % | barometer mb |
| 20260504214520 | 72 | 0.0 | 0.0 | 0.00 | 0.00 | 0.00 | 89 | 1018.2 | |
| 20260504213519 | 72 | 0.0 | 0.0 | 0.00 | 0.00 | 0.00 | 90 | 1017.7 | |
| 20260504212519 | 72 | 0.0 | 0.0 | 0.00 | 0.00 | 0.00 | 90 | 1017.2 | |
| 20260504211520 | 72 | 0.0 | 0.0 | 0.00 | 0.00 | 0.00 | 90 | 1017.2 | |
| 20260504210519 | 72 | 113 | 0.0 | 1.7 | 0.00 | 0.00 | 0.00 | 90 | 1017.2 |
| 20260504205519 | 72 | 133 | 0.9 | 2.6 | 0.00 | 0.00 | 0.00 | 89 | 1017.2 |
| 20260504204520 | 72 | 158 | 0.0 | 0.9 | 0.00 | 0.00 | 0.00 | 88 | 1017.2 |
| 20260504203519 | 73 | 158 | 0.0 | 1.7 | 0.00 | 0.00 | 0.00 | 87 | 1017.2 |
| 20260504202520 | 73 | 144 | 0.0 | 1.7 | 0.00 | 0.00 | 0.00 | 87 | 1017.2 |
| 20260504201520 | 73 | 180 | 0.0 | 0.9 | 0.00 | 0.00 | 0.00 | 87 | 1017.2 |
| 20260504200520 | 73 | 0.0 | 0.9 | 0.00 | 0.00 | 0.00 | 87 | 1017.2 | |
| 20260504195519 | 73 | 123 | 1.7 | 2.6 | 0.00 | 0.00 | 0.00 | 86 | 1017.2 |
| 20260504194519 | 73 | 0.0 | 0.0 | 0.00 | 0.00 | 0.00 | 86 | 1017.2 | |
| 20260504193519 | 73 | 143 | 0.9 | 2.6 | 0.00 | 0.00 | 0.00 | 86 | 1017.2 |
| 20260504192520 | 74 | 158 | 0.9 | 1.7 | 0.00 | 0.00 | 0.00 | 85 | 1017.2 |
| 20260504191519 | 74 | 132 | 0.9 | 2.6 | 0.00 | 0.00 | 0.00 | 83 | 1017.2 |
| 20260504190520 | 74 | 113 | 0.9 | 1.7 | 0.00 | 0.00 | 0.00 | 83 | 1017.2 |
| 20260504185519 | 75 | 0.0 | 0.0 | 0.00 | 0.00 | 0.00 | 81 | 1017.2 | |
| 20260504184520 | 75 | 135 | 0.0 | 1.7 | 0.00 | 0.00 | 0.00 | 81 | 1018.1 |
| 20260504183520 | 75 | 0.0 | 0.0 | 0.00 | 0.00 | 0.00 | 80 | 1018.2 | |
| 20260504182519 | 76 | 260 | 1.7 | 2.6 | 0.00 | 0.00 | 0.00 | 80 | 1018.2 |
| 20260504181520 | 76 | 0.0 | 0.0 | 0.00 | 0.00 | 0.00 | 80 | 1018.2 | |
| 20260504180519 | 76 | 158 | 0.0 | 0.9 | 0.00 | 0.00 | 0.00 | 80 | 1018.2 |
| 20260504175520 | 75 | 237 | 0.9 | 2.6 | 0.00 | 0.00 | 0.00 | 81 | 1018.2 |
| 20260504174520 | 75 | 137 | 0.9 | 2.6 | 0.00 | 0.00 | 0.00 | 81 | 1018.2 |
| 20260504173520 | 75 | 248 | 0.0 | 2.6 | 0.00 | 0.00 | 0.00 | 82 | 1018.8 |
| 20260504172520 | 75 | 260 | 2.6 | 3.5 | 0.00 | 0.00 | 0.00 | 82 | 1019.2 |
| 20260504171519 | 74 | 0.0 | 0.0 | 0.00 | 0.00 | 0.00 | 83 | 1019.2 | |
| 20260504170519 | 74 | 253 | 2.6 | 4.3 | 0.00 | 0.00 | 0.00 | 82 | 1019.2 |
| 20260504150520 | 75 | 132 | 1.7 | 2.6 | 0.00 | 0.00 | 0.00 | 77 | 1020.2 |
| 20260504140520 | 72 | 130 | 0.9 | 1.7 | 0.00 | 0.00 | 0.00 | 81 | 1021.2 |
| 20260504130520 | 69 | 268 | 2.6 | 3.5 | 0.00 | 0.00 | 0.00 | 87 | 1021.2 |
| 20260504110523 | 64 | 251 | 0.9 | 3.5 | 0.00 | 0.00 | 0.00 | 97 | 1021.2 |
| 20260504100522 | 64 | 267 | 1.7 | 2.6 | 0.00 | 0.00 | 0.00 | 95 | |
| 20260504081520 | 64 | 0.0 | 0.0 | 0.00 | 0.00 | 0.00 | 92 | 1020.2 | |
| 20260504080522 | 64 | 0.0 | 0.0 | 0.00 | 0.00 | 0.00 | 93 | 1020.2 | |
| 20260504050522 | 65 | 248 | 0.0 | 1.7 | 0.00 | 0.00 | 0.00 | 90 | 1021.2 |
| 20260504045520 | 65 | 0.0 | 0.0 | 0.00 | 0.00 | 0.00 | 90 | 1021.2 | |
| 20260504044520 | 65 | 0.0 | 0.0 | 0.00 | 0.00 | 0.00 | 91 | 1021.2 | |
| 20260504043522 | 65 | 250 | 1.7 | 1.7 | 0.00 | 0.00 | 0.00 | 91 | 1021.2 |
| 20260504042520 | 65 | 0.0 | 0.0 | 0.00 | 0.00 | 0.00 | 90 | 1021.2 | |
| 20260504041520 | 65 | 0.0 | 0.0 | 0.00 | 0.00 | 0.00 | 90 | 1021.2 | |
| 20260504040522 | 65 | 0.0 | 0.0 | 0.00 | 0.00 | 0.00 | 90 | 1021.2 | |
| 20260504035520 | 65 | 0.0 | 0.0 | 0.00 | 0.00 | 0.00 | 90 | 1021.2 | |
| 20260504034520 | 65 | 0.0 | 0.0 | 0.00 | 0.00 | 0.00 | 89 | 1021.2 | |
| 20260504033522 | 65 | 0.0 | 0.0 | 0.00 | 0.00 | 0.00 | 89 | 1021.7 | |
| 20260504032520 | 65 | 0.0 | 0.0 | 0.00 | 0.00 | 0.00 | 89 | 1022.2 | |
| 20260504031520 | 65 | 0.0 | 0.0 | 0.00 | 0.00 | 0.00 | 89 | 1022.2 | |
| 20260504030522 | 65 | 0.0 | 0.0 | 0.00 | 0.00 | 0.00 | 89 | 1022.2 | |
| 20260504025520 | 65 | 139 | 0.0 | 1.7 | 0.00 | 0.00 | 0.00 | 89 | 1022.2 |
| 20260504024520 | 65 | 0.0 | 0.0 | 0.00 | 0.00 | 0.00 | 89 | 1022.2 | |
| 20260504023522 | 65 | 129 | 0.9 | 1.7 | 0.00 | 0.00 | 0.00 | 89 | 1022.5 |
| 20260504022520 | 65 | 113 | 0.9 | 1.7 | 0.00 | 0.00 | 0.00 | 89 | 1023.2 |
| 20260504021520 | 65 | 138 | 0.9 | 1.7 | 0.00 | 0.00 | 0.00 | 89 | 1023.2 |
| 20260504020522 | 66 | 180 | 0.0 | 0.9 | 0.00 | 0.00 | 0.00 | 89 | 1023.2 |
| 20260504015520 | 66 | 0.0 | 0.0 | 0.00 | 0.00 | 0.00 | 89 | 1023.2 | |
| 20260504014520 | 66 | 122 | 0.0 | 1.7 | 0.00 | 0.00 | 0.00 | 89 | 1023.2 |
| 20260504013522 | 66 | 0.0 | 0.0 | 0.00 | 0.00 | 0.00 | 89 | 1023.2 | |
| 20260504012520 | 66 | 0.0 | 0.0 | 0.00 | 0.00 | 0.00 | 89 | 1023.2 | |
| 20260504011520 | 66 | 0.0 | 0.0 | 0.00 | 0.00 | 0.00 | 89 | 1023.2 | |
| 20260504010523 | 66 | 0.0 | 0.0 | 0.00 | 0.00 | 0.00 | 89 | 1023.2 | |
| 20260504005520 | 66 | 113 | 0.0 | 1.7 | 0.00 | 0.00 | 0.00 | 89 | 1023.2 |
| 20260504004520 | 66 | 0.0 | 0.0 | 0.00 | 0.00 | 0.00 | 88 | 1023.2 | |
| 20260504003522 | 66 | 135 | 0.0 | 1.7 | 0.00 | 0.00 | 0.00 | 87 | 1023.2 |
| 20260504002520 | 66 | 158 | 0.0 | 1.7 | 0.00 | 0.00 | 0.00 | 87 | 1023.2 |
| 20260504001520 | 66 | 0.0 | 0.0 | 0.00 | 0.00 | 0.00 | 86 | 1023.2 | |
| 20260504000522 | 66 | 122 | 1.7 | 1.7 | 0.00 | 0.00 | 0.00 | 86 | 1023.2 |
| 20260503235520 | 67 | 132 | 0.9 | 1.7 | 0.00 | 0.00 | 0.00 | 85 | 1023.2 |
| 20260503234520 | 66 | 0.0 | 0.0 | 0.00 | 0.00 | 0.00 | 84 | 1023.2 | |
| 20260503233522 | 66 | 0.0 | 0.0 | 0.00 | 0.00 | 0.00 | 84 | 1022.5 | |
| 20260503232520 | 66 | 135 | 0.0 | 1.7 | 0.00 | 0.00 | 0.00 | 83 | 1022.2 |
| 20260503231520 | 66 | 0.0 | 0.0 | 0.00 | 0.00 | 0.00 | 82 | 1022.2 | |
| 20260503230522 | 67 | 135 | 0.0 | 1.7 | 0.00 | 0.00 | 0.00 | 82 | 1023.2 |
| 20260503225520 | 67 | 0.0 | 0.0 | 0.00 | 0.00 | 0.00 | 82 | 1022.2 | |
| 20260503224520 | 67 | 0.0 | 0.0 | 0.00 | 0.00 | 0.00 | 82 | 1023.2 | |
| 20260503223522 | 67 | 141 | 0.9 | 1.7 | 0.00 | 0.00 | 0.00 | 81 | 1022.7 |
| 20260503222520 | 67 | 125 | 0.9 | 1.7 | 0.00 | 0.00 | 0.00 | 80 | 1022.2 |
| 20260503221520 | 68 | 135 | 0.0 | 1.7 | 0.00 | 0.00 | 0.00 | 79 | 1022.2 |
| 20260503220522 | 68 | 141 | 0.9 | 1.7 | 0.00 | 0.00 | 0.00 | 78 | 1022.2 |
| 20260503215520 | 68 | 0.0 | 0.0 | 0.00 | 0.00 | 0.00 | 78 | 1022.2 |